IRIDIUM 81 [P]

Last updated on June 19, 2018, 12:20 a.m. UTC

1 25468U 98051B   18169.45484775  .00620325 -10798-5  13689-2 0  9995
2 25468  86.4166 228.5080 0370526 349.4070   9.9517 15.35488954 35532

Satellite is not in orbit.